Regional Weather Roundup
Issued by NWS

Home | Current Version | Previous Version | Graphics & Text | Print | Product List | Glossary On
Versions: 1 2 3 4 5 6 7 8 9 10 11 12 13 14 15 16 17 18 19 20 21 22 23 24 25 26 27 28 29 30 31 32 33 34 35 36 37 38 39 40 41 42 43 44 45 46 47 48 49 50
862
ASUS45 KCYS 220010
RWRWY

WYOMING REGIONAL WEATHER ROUNDUP
NATIONAL WEATHER SERVICE CHEYENNE WY
500 PM MST TUE FEB 21 2017

NOTE:  "FAIR" INDICATES FEW OR NO CLOUDS BELOW 12,000 FEET
WITH NO SIGNIFICANT WEATHER AND/OR OBSTRUCTIONS TO VISIBILITY.

WYZ001-220100-
YELLOWSTONE NATIONAL PARK

CITY           SKY/WX    TMP DP  RH WIND       PRES   REMARKS
LK YELLOWSTONE   N/A     27  25  92 VRB6      29.85R WCI  20
6HR MIN TEMP:  27; 6HR MAX TEMP:  34; 6HR PCP:  0.03;

W YELLOWSTONE  NOT AVBL

$$
WYZ002>013-054>058-071-098>099-220100-
NORTHERN WYOMING

CITY           SKY/WX    TMP DP  RH WIND       PRES   REMARKS
JACKSON        CLOUDY    30  30 100 S23G30    29.90S VSB 1/2 WCI  17
CODY           FAIR      42  27  55 SW13G21   29.81R
GREYBULL       MOCLDY    46  33  60 W14       29.77R
6HR MIN TEMP:  46; 6HR MAX TEMP:  56;

WORLAND        CLOUDY    48  35  60 SW9       29.77R
6HR MIN TEMP:  47; 6HR MAX TEMP:  59;

SHERIDAN       FAIR      52  30  43 SW23      29.72F
6HR MIN TEMP:  52; 6HR MAX TEMP:  63;

BUFFALO        MOCLDY    50  32  50 SW12      29.75S
6HR MIN TEMP:  49; 6HR MAX TEMP:  62; 6HR PCP: TRACE;

GILLETTE       CLOUDY    54  33  45 W21G37    29.73R
6HR MIN TEMP:  53; 6HR MAX TEMP:  64; 6HR PCP: TRACE;

HULETT         FAIR      55  32  41 NW3G16    29.71S
NEWCASTLE      FAIR      61  23  23 W26G36    29.74F

$$
WYZ014>020-022>026-101>103-220100-
CENTRAL WYOMING

CITY           SKY/WX    TMP DP  RH WIND       PRES   REMARKS
BIG PINEY      HVY SNOW  32  31  96 NW21G30   29.92R WCI  20
6HR MIN TEMP:  32; 6HR MAX TEMP:  39; 6HR PCP:  0.08;

PINEDALE       HVY SNOW  32  32 100 NW16      29.90R VSB<1/4 WCI  21
DUBOIS         CLOUDY    30  27  86 NW14      29.84R WCI  20
LANDER         LGT RAIN  44  34  67 NW18      29.79F
6HR MIN TEMP:  41; 6HR MAX TEMP:  53; 6HR PCP:  0.01;

RIVERTON       CLOUDY    45  33  63 SW14      29.81R
6HR MIN TEMP:  44; 6HR MAX TEMP:  53;

CASPER         FAIR      53  31  42 SW21G29   29.79F
6HR MIN TEMP:  53; 6HR MAX TEMP:  60;

DOUGLAS        FAIR      55  29  36 SW20G33   29.83R
6HR MIN TEMP:  55; 6HR MAX TEMP:  63;


$$
WYZ021-027>030-104>119-220100-
SOUTHERN WYOMING

CITY           SKY/WX    TMP DP  RH WIND       PRES   REMARKS
EVANSTON       CLOUDY    41  27  57 SW22      29.87F
6HR MIN TEMP:  41; 6HR MAX TEMP:  43; 6HR PCP: TRACE;

KEMMERER         N/A     39  30  70 SW31G41   29.87F WCI  27
FORT BRIDGER   CLOUDY    45  28  52 SW24G40   29.93F
ROCK SPRINGS   FAIR      48  27  44 SW30G41   29.87F
6HR MIN TEMP:  48; 6HR MAX TEMP:  53;

DIXON            N/A     50  31  48 SW23G29   30.02F
RAWLINS        FAIR      48  32  53 SW23G33   29.90F
6HR MIN TEMP:  46; 6HR MAX TEMP:  53;

SARATOGA       FAIR      48  27  43 SW24G37   29.97F
LARAMIE        FAIR      47  22  37 SW21G30   29.97F
6HR MIN TEMP:  47; 6HR MAX TEMP:  54;

CHEYENNE       FAIR      56  17  21 W20G28    29.96F
6HR MIN TEMP:  56; 6HR MAX TEMP:  62;

TORRINGTON     FAIR      65  16  15 SW20G29   29.82F
6HR MIN TEMP:  65; 6HR MAX TEMP:  70; 6HR PCP: TRACE;

PINE BLUFFS    FAIR      61  14  16 W20G31    29.93S

$$




USA.gov is the U.S. government's official web portal to all federal, state and local government web resources and services.